Location: ??????????
(54.8537°N, 38.8755°E)
Time: 12:07:21
(UTC+00:00)

Tiros 1 despin weight - Pass Details

Date: 15 September 2024
Orbit: 573 x 615 km, 48.2° (Epoch: 03 October)

Event Time Altitude Azimuth Distance (km) Brightness Sun altitude
Rises 03:49:26 0° 259° (W) 2,890 ? 6.6°
Reaches altitude 10° 03:51:53 10° 251° (WSW) 1,985 ? 7.0°
Maximum altitude 03:56:02 35° 186° (S) 1,002 ? 7.6°
Drops below altitude 10° 04:00:11 10° 120° (ESE) 1,979 ? 8.2°
Sets 04:02:37 0° 112° (ESE) 2,880 ? 8.5°
